STARLINK-32704, 62826

Orbit data source: Space-Track

STARLINK-32704, 62826 is a payload satellite owned by SpaceX/Seattle (US) in LEO that was launched on Fri, 24 Jan 2025 UTC via an FALCON 9 launch vehicle from the Air Force Western Test Range (AFWTR). Payload-class satellites include a variety of spacecraft equipped with specific instruments for various scientific and technological missions. These include communications satellites like Starlink; space stations such as the ISS; scientific satellites like the Hubble; Earth observation satellites from companies like Planet Labs, Umbra, and HawkEye 360; GPS; miniature CubeSats for education and research; and military/defense satellites.

Loading next visibility...
Identifier
62826, 2025-018W
Orbit
LEO
Country
Flag of USUS
Related business
Manufacturer
SpaceX/Seattle
Mission
Operational Commercial Communications
Bus & Motor
STARLINK V2M, Unknown motor
Mass
730 kg wet, ~700 kg dry
Launch date (UTC)
2025-01-24 (1 year ago)
Launch vehicle
FALCON 9
Launch site
Air Force Western Test Range (AFWTR)
Object type
Payload
Rocket body
Debris
Shape & HBR
Box + 2 Pan, 17.7 m
Radar Cross Section
33.884 m², Large (>1 m²)

Expand to show TLE details & history
Last TLE update: 13 hours ago

TLE from 13 hours ago
0 STARLINK-32704
1 62826U 25018W   26034.49864991  .00013729  00000-0  47483-3 0  9996
2 62826  53.1581 108.4263 0001048  63.1223 296.9885 15.30198345 57933
Epoch: 2026-02-03T11:58Z
TLE epoch observation values (Epoch: 2026-02-03T11:58:03.352Z)
Latitude
0.00001°
Longitude
155.23363°
Altitude
475.794 km
Speed
7.629 km/s
True Right ascension
07h 13m 42s
True Declination
0° 00' 00"
Sunlit
Object was in full shadow at epoch
Visualization orbit readout
Latitude
Unknown
Longitude
Unknown
Altitude
Unknown
Speed
Unknown
Apparent Right ascension
Unknown
Apparent Declination
Unknown
Sunlit
N/A
Visualization observer readout
Local Sidereal Time
02:39:05
Azimuth
Unknown
Elevation
Unknown
Doppler factor
Unknown
Orbital elements
Apogee altitude
476.195 km
Perigee altitude
474.758 km
Semi-major axis
6,853.614 km
Eccentricity
0.0001
Inclination
53.1581°
RAAN
108.4263°
Arg. of periapsis
63.1223°
True anomaly
296.9778°
Mean anomaly
296.9885°
Eccentric anomaly
296.98315°
Mean motion
3.82528 °/min
Orbital period
94.11 mins
BSTAR
0.00047483
Loading maneuver chart data...
Computing Atmospheric mass density...
Loading historical data...
Loading historical data...
Loading historical data...
Loading historical data...
Loading historical data...
Loading historical data...
Loading historical data...

Documentation

Showing up to 5 results
|